{"data":{"norad_id":41727,"intl_designator":"2016-049A","name":"GAOFEN-3","alt_names":[],"object_type":"PAYLOAD","status":"ACTIVE","operator":null,"country":"PRC","launch_date":"2016-08-09","launch_site_code":"TAISC","launch_vehicle":null,"mission":null,"orbit_class":"UNKNOWN","rcs_meters":3.9379,"size_class":null,"mass_kg":null,"dimensions":null,"purposes":["earth_obs"],"wikipedia_slug":null,"has_3d_model":false,"image_url":null,"decayed_at":null,"tle_current":{"epoch":"2026-09-20T04:49:17.841216Z","epoch_age_seconds":40303,"freshness":"FRESH","line1":"1 41727U 16049A   26263.20090094 -.00000017  00000+0  81577-5 0  9995","line2":"2 41727  98.4059 269.5689 0000889  89.5077 270.6214 14.42225748532342","mean_motion":14.42225748,"eccentricity":8.89e-5,"inclination_deg":98.4059,"raan_deg":269.5689,"arg_perigee_deg":89.5077,"mean_anomaly_deg":270.6214,"bstar":8.1577e-6,"rev_number":53234,"period_min":99.845672703938,"perigee_km":750.52025415804,"apogee_km":751.7878421064,"semimajor_km":7129.2910481322,"source":"CELESTRAK","updated_at":"2026-09-20T09:00:33.967292Z"}}}